Location: Brede
(50.9167°N, 0.6000°E)
Time: 19:25:51
(UTC+00:00)

CSL-04 DEB - Pass Details

Date: 08 August 2020
Orbit: 546 x 627 km, 98.7° (Epoch: 24 September)

Event Time Altitude Azimuth Distance (km) Brightness Sun altitude
Rises 03:12:20 0° 164° (SSE) 2,705 7.6 -11.4°
Reaches altitude 10° 03:14:26 10° 164° (SSE) 1,815 6.7 -11.1°
Maximum altitude 03:18:21 87° 251° (WSW) 556 4.3 -10.7°
Drops below altitude 10° 03:22:20 10° 344° (NNW) 1,839 7.3 -10.2°
Sets 03:24:28 0° 345° (NNW) 2,745 8.3 -10.0°
